Location: Cabeza de los Veneras
(40.2000°N, 5.2000°W)
Time: 04:33:50
(UTC+00:00)

BlueWalker 3 - Pass Details

Date: 25 June 2024
Orbit: 480 x 491 km, 53.2° (Epoch: 21 July)

Event Time Altitude Azimuth Distance (km) Brightness Sun altitude
Rises 23:41:20 0° 316° (NW) 2,540 6.4 -25.7°
Reaches altitude 10° 23:44:06 10° 337° (NNW) 1,658 5.5 -25.8°
Maximum altitude 23:46:37 17° 19° (NNE) 1,287 4.7 -25.9°
Drops below altitude 10° 23:49:07 10° 62° (ENE) 1,655 4.8 -25.9°
Enters shadow 23:49:29 - 66° (ENE) 1,754 4.8 -26.0°
